Regional Weather Roundup
Issued by NWS Albany, NY

Home | Current Version | Previous Version | Text Only | Print | Product List | Glossary On
Versions: 1 2 3 4 5 6 7 8 9 10 11 12 13 14 15 16 17 18 19 20 21 22 23 24 25 26 27 28 29 30 31 32 33 34 35 36 37 38 39 40 41 42 43 44 45 46 47 48 49 50
000
ASUS41 KALY 031410
RWRALY

NEW YORK STATE HOURLY WEATHER ROUNDUP
NATIONAL WEATHER SERVICE ALBANY NY
1000 AM EDT FRI JUL 03 2015

NOTE: "FAIR" INDICATES FEW OR NO CLOUDS BELOW 12,000 FEET WITH NO
SIGNIFICANT WEATHER AND/OR NO OBSTRUCTIONS TO VISIBILITY.

NYZ032-033-038>043-046>054-057>066-NYZ062>081-031500-
EAST


CITY           SKY/WX    TMP DP  RH WIND       PRES   REMARKS
ALBANY         MOSUNNY   68  51  54 N3        30.02S
GLENS FALLS    SUNNY     66  52  60 S3        30.00F
POUGHKEEPSIE   SUNNY     69  52  54 N6        30.00F
NEWBURGH       SUNNY     68  54  60 E7        30.02F
MONTGOMERY     SUNNY     69  54  58 NE7       30.01F
WHITE PLAINS   SUNNY     71  50  47 N9        29.98F
ISLIP          MOSUNNY   71  53  52 N8        29.96S
NEW YORK CITY  MOSUNNY   72  52  49 N7        29.98S
CENTRAL PARK   SUNNY     71  52  50 VRB6      30.01S
$$

NYZ005>009-017-018-044>046-055-056-031500-
CENTRAL


CITY           SKY/WX    TMP DP  RH WIND       PRES   REMARKS
FULTON         SUNNY     66  54  65 CALM      30.02S
SYRACUSE       MOSUNNY   66  51  58 CALM      30.02F
ROME           SUNNY     65  51  60 CALM      30.04S
ELMIRA         SUNNY     64  54  69 CALM      30.03S
BINGHAMTON     SUNNY     63  48  58 VRB3      30.05R
MONTICELLO     SUNNY     64  46  52 CALM      30.04F
$$

NYZ026>034-041>043-031500-
NORTH


CITY           SKY/WX    TMP DP  RH WIND       PRES   REMARKS
WATERTOWN      SUNNY     66  54  65 VRB3      30.01S
FORT DRUM      NOT AVBL
MASSENA        SUNNY     66  53  63 SW6       30.00F
SARANAC LAKE   SUNNY     62  50  64 SE3       30.01S
PLATTSBURGH    MOSUNNY   66  56  70 SE12      29.98S
$$

NYZ001>004-010>016-019>021-031500-
WEST


CITY           SKY/WX    TMP DP  RH WIND       PRES   REMARKS
NIAGARA FALLS  MOSUNNY   65  48  54 CALM      30.02R
BUFFALO        MOSUNNY   65  47  52 VRB3      30.02S
DUNKIRK        SUNNY     67  48  50 CALM      30.02S
JAMESTOWN      SUNNY     61  45  55 E7        30.05S
WELLSVILLE     MOSUNNY   62  50  64 VRB3      30.06S
ROCHESTER      SUNNY     65  51  60 SW3       30.02S
PENN YAN       SUNNY     66  50  56 SW3       30.03S
$$

             KEY
       WCI = WIND CHILL INDEX
       VSB = VISIBILITY
       HX  = HEAT INDEX
$$


USA.gov is the U.S. government's official web portal to all federal, state and local government web resources and services.